sat.trackr.live / text

‹ back to catalog

STARLINK-11178 [DTC]

NORAD 62465 · 2024-254D

PAYLOAD ACTIVE UNKNOWN

§ Identity

Operator
Country
US
Launch date
2024-12-31
Launch site
AFETR
Launch vehicle
Mass (kg)
RCS (m²)

Purposes: comms

External: N2YO · Heavens-Above · Gunter

§ Orbital elements

Epoch: 2026-09-21T14:55:32.002752Z

Period
91.67 min
Inclination
43.0009°
Eccentricity
0.0000566
Mean motion
15.70857880 rev/d
Perigee alt
356.1 km
Apogee alt
356.8 km
Semi-major
6,734.6 km
B*
2.3464e-4
RAAN
122.2059°
Arg perigee
279.0218°
Mean anomaly
81.0585°
Rev number
10,005

§ Raw data

STARLINK-11178 [DTC]1 62465U 24254D   26264.62189818  .00029789  00000+0  23464-3 0  99992 62465  43.0009 122.2059 0000566 279.0218  81.0585 15.70857880100050

JSON: /api/v1/satellites/62465 · /tle

For live sub-satellite position, see the globe view (requires WebGL).

§ Visibility from observer

Set your observer location to see the next 7 days of passes ≥ 10°. The values pass through the URL so the page stays shareable.

No JS? Fill the form by hand. The geolocation button needs JavaScript.